Location: Arboyeti
(42.1122°N, 44.6017°E)
Time: 04:44:54
(UTC+00:00)

COSMOS 2428 - Pass Details

Date: 19 April 2021
Orbit: 844 x 859 km, 70.9° (Epoch: 09 May)

Event Time Altitude Azimuth Distance (km) Brightness Sun altitude
Rises 17:01:53 0° 336° (NNW) 3,441 6.8 -13.5°
Reaches altitude 10° 17:04:21 10° 337° (NNW) 2,501 6.0 -13.9°
Maximum altitude 17:10:08 84° 65° (ENE) 869 2.7 -14.9°
Enters shadow 17:14:29 18° 154° (SSE) 1,973 4.1 -15.5°
